User: anonymous   Login
Location: Altleiningen
(49.5078°N, 8.0741°E)
Time: 20:02:20
(UTC+00:00)
Language:

FALCON 9 DEB - Orbit

View from above orbital plane
View from above orbital plane
View from above satellite
View from above satellite

Ground track
Ground track

The orbit data is extracted from the following two-line orbital elements,

1 46085U 20055BL  21136.78245391  .00012134  00000-0  13225-3 0  9994
2 46085  53.0119 353.4587 0011409 137.0638 223.1268 15.63824765 48702
Epoch (UTC): 16 May 2021 18:46:44
Eccentricity: 0.0011409
inclination: 53.0119°
perigee height: 369 km
apogee height: 384 km
right ascension of ascending node: 353.4587°
argument of perigee: 137.0638°
revolutions per day: 15.63824765
mean anomaly at epoch: 223.1268°
orbit number at epoch: 4870

The dashed part of the orbit path shows where the satellite is in the earth's shadow,  

DLR